Location: Memphis International Airport Police
(35.0443°N, 89.9815°W)
Time: 17:59:54
(UTC+00:00)

ATLAS 3B R/B - Pass Details

Date: 26 September 2023
Orbit: 954 x 1241 km, 63.8° (Epoch: 01 December)

Event Time Altitude Azimuth Distance (km) Brightness Sun altitude
Rises 10:59:14 0° 326° (NNW) 4,158 5.5 -11.4°
Reaches altitude 10° 11:02:00 10° 325° (NW) 3,203 4.9 -10.8°
Maximum altitude 11:09:44 70° 244° (WSW) 1,308 3.0 -9.2°
Drops below altitude 10° 11:17:20 10° 162° (SSE) 3,153 5.4 -7.7°
Sets 11:20:03 0° 160° (SSE) 4,090 6.0 -7.1°
